When you browse on this site, cookies collect data to enhance your experience and personalize the content and advertising you see.
Visit our Privacy Policy to learn more. By continuing to use the site, you agree to this use of cookies and data.
  • In Hungary
  • List of Countries
  • For 7 days
  • Water Temperature
  • Satellite Maps
  • Weather Map
  • News
  • Weather Widgets
  • user-avatar
    Login

    Hourly Weather Gron

    Today, 17 November, Saturday

    Time Temperature Precipitation Wind Pressure Humidity
    00:00 -2°C° 0 mm 3 mps 727 mmHg 88%
    01:00 -2°C° 0 mm 3 mps 727 mmHg 87%
    02:00 -4°C° 0 mm 3 mps 727 mmHg 87%
    03:00 -4°C° 0 mm 3 mps 727 mmHg 87%
    04:00 -4°C° 0 mm 3 mps 727 mmHg 87%
    05:00 -5°C° 0 mm 3 mps 727 mmHg 83%
    06:00 -5°C° 0 mm 3 mps 726 mmHg 80%
    07:00 -5°C° 0 mm 3 mps 726 mmHg 77%
    08:00 -2°C° 0 mm 3 mps 727 mmHg 70%
    09:00 -2°C° 0 mm 4 mps 727 mmHg 64%
    10:00 -1°C° 0 mm 4 mps 727 mmHg 57%
    11:00 0°C° 0 mm 4 mps 727 mmHg 55%
    12:00 0°C° 0 mm 4 mps 726 mmHg 53%
    13:00 +1°C° 0 mm 4 mps 726 mmHg 50%
    14:00 0°C° 0 mm 4 mps 726 mmHg 54%
    15:00 0°C° 0 mm 3 mps 726 mmHg 57%
    16:00 -1°C° 0 mm 3 mps 725 mmHg 61%
    17:00 -2°C° 0 mm 3 mps 725 mmHg 63%
    18:00 -2°C° 0 mm 3 mps 725 mmHg 65%
    19:00 -3°C° 0 mm 2 mps 725 mmHg 68%
    20:00 -3°C° 0 mm 2 mps 725 mmHg 69%
    21:00 -3°C° 0 mm 2 mps 725 mmHg 71%
    22:00 -3°C° 0 mm 2 mps 725 mmHg 72%
    23:00 -3°C° 0 mm 2 mps 725 mmHg 74%

    Tomorrow, 18 November, Sunday

    Time Temperature Precipitation Wind Pressure Humidity
    00:00 -3°C° 0 mm 2 mps 725 mmHg 75%
    01:00 -4°C° 0 mm 2 mps 725 mmHg 76%
    02:00 -4°C° 0 mm 2 mps 724 mmHg 77%
    03:00 -2°C° 0 mm 1 mps 724 mmHg 79%
    04:00 -2°C° 0 mm 1 mps 723 mmHg 80%
    05:00 -2°C° 0 mm 1 mps 723 mmHg 80%
    06:00 -2°C° 0 mm 1 mps 723 mmHg 81%
    07:00 -2°C° 0 mm 1 mps 723 mmHg 81%
    08:00 -1°C° 0 mm 1 mps 723 mmHg 76%
    09:00 0°C° 0 mm 1 mps 723 mmHg 70%
    10:00 +2°C° 0 mm 1 mps 723 mmHg 65%
    11:00 +1°C° 0 mm 2 mps 722 mmHg 63%
    12:00 +2°C° 0 mm 2 mps 721 mmHg 61%
    13:00 +3°C° 0 mm 2 mps 721 mmHg 59%
    14:00 +2°C° 0 mm 2 mps 720 mmHg 61%
    15:00 +1°C° 0 mm 2 mps 720 mmHg 64%
    16:00 +1°C° 0 mm 1 mps 719 mmHg 66%
    17:00 +1°C° 0 mm 1 mps 719 mmHg 65%
    18:00 +1°C° 0 mm 1 mps 718 mmHg 63%
    19:00 -2°C° 0 mm 2 mps 718 mmHg 61%
    20:00 0°C° 0 mm 1 mps 718 mmHg 63%
    21:00 0°C° 0 mm 1 mps 718 mmHg 65%
    22:00 -1°C° 0 mm 1 mps 717 mmHg 67%
    23:00 -1°C° 0 mm 1 mps 717 mmHg 69%

    Day after tomorrow, 19 November, Monday

    Time Temperature Precipitation Wind Pressure Humidity
    00:00 -1°C° 0 mm 1 mps 717 mmHg 72%
    01:00 -1°C° 0 mm 1 mps 716 mmHg 74%
    02:00 -1°C° 0 mm 1 mps 716 mmHg 77%
    03:00 -1°C° 0 mm 1 mps 715 mmHg 79%
    04:00 -1°C° 0 mm 1 mps 715 mmHg 82%
    05:00 -1°C° 0 mm 1 mps 715 mmHg 84%
    06:00 -1°C° 0 mm 1 mps 715 mmHg 87%
    07:00 -1°C° 0 mm 1 mps 715 mmHg 90%
    08:00 -2°C° 0 mm 2 mps 715 mmHg 86%
    09:00 -1°C° 0 mm 2 mps 715 mmHg 82%
    10:00 0°C° 0 mm 3 mps 715 mmHg 79%
    11:00 0°C° 0 mm 3 mps 714 mmHg 76%
    12:00 0°C° 0 mm 3 mps 714 mmHg 74%
    13:00 -1°C° 0 mm 4 mps 714 mmHg 71%
    14:00 0°C° 0 mm 3 mps 714 mmHg 73%
    15:00 -1°C° 0 mm 3 mps 714 mmHg 75%
    16:00 -1°C° 0 mm 3 mps 713 mmHg 78%
    17:00 -2°C° 0 mm 3 mps 714 mmHg 79%
    18:00 -2°C° 0 mm 3 mps 714 mmHg 81%
    19:00 -4°C° 0 mm 3 mps 714 mmHg 82%
    20:00 -4°C° 0 mm 3 mps 714 mmHg 83%
    21:00 -4°C° 0 mm 3 mps 714 mmHg 83%
    22:00 -4°C° 0 mm 3 mps 714 mmHg 84%
    23:00 -5°C° 0 mm 3 mps 714 mmHg 84%

    20 November, Tuesday

    Time Temperature Precipitation Wind Pressure Humidity
    00:00 -5°C° 0 mm 3 mps 714 mmHg 85%
    01:00 -5°C° 0 mm 3 mps 714 mmHg 85%
    02:00 -5°C° 0 mm 3 mps 714 mmHg 86%
    03:00 -5°C° 0 mm 3 mps 714 mmHg 86%
    04:00 -5°C° 0 mm 3 mps 713 mmHg 87%
    05:00 -5°C° 0 mm 3 mps 713 mmHg 87%
    06:00 -5°C° 0 mm 3 mps 713 mmHg 86%
    07:00 -5°C° 0 mm 3 mps 713 mmHg 85%
    08:00 -4°C° 0 mm 3 mps 713 mmHg 82%
    09:00 -3°C° 0 mm 4 mps 713 mmHg 79%
    10:00 -2°C° 0 mm 4 mps 712 mmHg 75%
    11:00 -2°C° 0 mm 5 mps 712 mmHg 75%
    12:00 -1°C° 0 mm 5 mps 711 mmHg 74%
    13:00 -1°C° 0 mm 5 mps 711 mmHg 74%
    14:00 -1°C° 0.1 mm 5 mps 710 mmHg 77%
    15:00 -2°C° 0.1 mm 5 mps 709 mmHg 80%
    16:00 -3°C° 0.1 mm 6 mps 709 mmHg 83%
    17:00 -3°C° 0.1 mm 6 mps 708 mmHg 83%
    18:00 -3°C° 0.1 mm 6 mps 708 mmHg 84%
    19:00 -3°C° 0.1 mm 6 mps 707 mmHg 85%
    20:00 -2°C° 0.4 mm 5 mps 707 mmHg 86%
    21:00 -2°C° 0.4 mm 5 mps 707 mmHg 87%
    22:00 -2°C° 0.4 mm 5 mps 706 mmHg 88%
    23:00 -2°C° 0.5 mm 4 mps 706 mmHg 89%

    21 November, Wednesday

    Time Temperature Precipitation Wind Pressure Humidity
    00:00 -2°C° 0.5 mm 4 mps 706 mmHg 90%
    01:00 -1°C° 0.5 mm 3 mps 705 mmHg 91%
    02:00 0°C° 0.4 mm 3 mps 705 mmHg 92%
    03:00 0°C° 0.4 mm 3 mps 705 mmHg 92%
    04:00 0°C° 0.4 mm 3 mps 705 mmHg 93%
    05:00 +1°C° 0.2 mm 2 mps 705 mmHg 93%
    06:00 +1°C° 0.2 mm 2 mps 705 mmHg 93%
    07:00 +1°C° 0.2 mm 2 mps 705 mmHg 94%
    08:00 +2°C° 0 mm 1 mps 706 mmHg 92%
    09:00 +3°C° 0 mm 1 mps 706 mmHg 91%
    10:00 +4°C° 0 mm 1 mps 707 mmHg 90%
    11:00 +4°C° 0 mm 1 mps 708 mmHg 89%
    12:00 +4°C° 0 mm 1 mps 708 mmHg 88%
    13:00 +5°C° 0 mm 1 mps 709 mmHg 87%
    14:00 +4°C° 0 mm 1 mps 709 mmHg 89%
    15:00 +4°C° 0 mm 1 mps 710 mmHg 91%
    16:00 +2°C° 0 mm 0 mps 710 mmHg 93%
    17:00 +2°C° 0 mm 0 mps 711 mmHg 94%
    18:00 +1°C° 0 mm 0 mps 711 mmHg 94%
    19:00 +1°C° 0 mm 0 mps 711 mmHg 95%
    20:00 +1°C° 0 mm 1 mps 712 mmHg 95%
    21:00 +1°C° 0 mm 1 mps 713 mmHg 94%
    22:00 +1°C° 0 mm 1 mps 713 mmHg 94%
    23:00 +1°C° 0 mm 1 mps 713 mmHg 94%

    22 November, Thursday

    Time Temperature Precipitation Wind Pressure Humidity
    00:00 +1°C° 0 mm 1 mps 713 mmHg 93%
    01:00 +1°C° 0 mm 1 mps 713 mmHg 93%
    02:00 -1°C° 0 mm 2 mps 714 mmHg 92%
    03:00 -1°C° 0 mm 2 mps 714 mmHg 92%
    04:00 +1°C° 0 mm 2 mps 714 mmHg 91%
    05:00 +1°C° 0.1 mm 2 mps 714 mmHg 91%
    06:00 +1°C° 0.1 mm 2 mps 714 mmHg 90%
    07:00 +1°C° 0.1 mm 2 mps 715 mmHg 90%
    08:00 +2°C° 0.2 mm 2 mps 715 mmHg 89%
    09:00 +3°C° 0.2 mm 2 mps 715 mmHg 88%
    10:00 +3°C° 0.2 mm 2 mps 715 mmHg 87%
    11:00 +3°C° 0 mm 3 mps 716 mmHg 86%
    12:00 +4°C° 0 mm 3 mps 716 mmHg 85%
    13:00 +4°C° 0 mm 3 mps 716 mmHg 84%
    14:00 +4°C° 0.1 mm 3 mps 716 mmHg 86%
    15:00 +4°C° 0.1 mm 2 mps 716 mmHg 88%
    16:00 +4°C° 0.1 mm 2 mps 716 mmHg 90%
    17:00 +4°C° 0.1 mm 2 mps 716 mmHg 90%
    18:00 +3°C° 0.1 mm 2 mps 716 mmHg 91%
    19:00 +3°C° 0.1 mm 2 mps 717 mmHg 91%
    20:00 +3°C° 0 mm 2 mps 717 mmHg 92%
    21:00 +3°C° 0 mm 2 mps 717 mmHg 92%
    22:00 +3°C° 0 mm 1 mps 717 mmHg 93%
    23:00 +3°C° 0 mm 1 mps 717 mmHg 93%
    Show more